CZ-6A DEB, 58432

Orbit data source: Space-Track

CZ-6A DEB, 58432 is space debris in SSO originally from a launch on Fri, 11 Nov 2022 UTC launched from the Taiyaun Space Center, China (TSC). Debris objects in space refer to the collection of defunct objects orbiting the Earth. Examples of debris include non-operational satellites, rocket bodies, and fragments generated from explosions, collisions, or faulty payload assembly.

Loading next visibility...
Identifier
58432, 2022-151AJA
Orbit
SSO
Country
Flag of CNCN / PRC
Related business
Manufacturer
SAST
Mission
Spacecraft
Bus & Motor
Unknown
Mass
Unknown
Launch date (UTC)
2022-11-11 (3 years ago)
Launch vehicle
Unknown
Launch site
Taiyaun Space Center, China (TSC)
Object type
Payload
Rocket body
Debris
Shape & HBR
Unknown shape, 0.1 m
Radar Cross Section
Small (<0.1 m²)

Expand to show TLE details & history
Last TLE update: 2 days ago

TLE from 2 days ago
0 CZ-6A DEB
1 58432U 22151AJA 26128.27893854  .00000777  00000-0  36440-3 0  9999
2 58432  98.7891 152.6777 0014270 103.0297 257.2475 14.23031184155614
Epoch: 2026-05-08T06:41Z
TLE epoch observation values (Epoch: 2026-05-08T06:41:40.289Z)
Latitude
-0.00004°
Longitude
-173.85317°
Altitude
820.316 km
Speed
7.442 km/s
True Right ascension
10h 10m 42s
True Declination
0° 00' 00"
Sunlit
Object was in daylight at epoch
Visualization orbit readout
Latitude
Unknown
Longitude
Unknown
Altitude
Unknown
Speed
Unknown
Apparent Right ascension
Unknown
Apparent Declination
Unknown
Sunlit
N/A
Visualization observer readout
Local Sidereal Time
22:58:47
Azimuth
Unknown
Elevation
Unknown
Doppler factor
Unknown
Orbital elements
Apogee altitude
822.539 km
Perigee altitude
802.017 km
Semi-major axis
7,190.415 km
Eccentricity
0.00143
Inclination
98.7891°
RAAN
152.6777°
Arg. of periapsis
103.0297°
True anomaly
257.08807°
Mean anomaly
257.2475°
Eccentric anomaly
257.16778°
Mean motion
3.55969 °/min
Orbital period
101.13 mins
BSTAR
0.0003644
Loading maneuver chart data...
Computing Atmospheric mass density...

Documentation

Showing up to 5 results
|